Showing default

ZHUHAI-1 OHS-02, 43441

Orbit data source: Space-Track

ZHUHAI-1 OHS-02, 43441 is a payload satellite owned by Zhuhai Orbita (CN) in SSO that was launched on Thu, 26 Apr 2018 UTC via a CHANG ZHENG 11 launch vehicle from the Jiuquan Satellite Launch Center, China (JSC). Payload-class satellites include a variety of spacecraft equipped with specific instruments for various scientific and technological missions. These include communications satellites like Starlink; space stations such as the ISS; scientific satellites like the Hubble; Earth observation satellites from companies like Planet Labs, Umbra, and HawkEye 360; GPS; miniature CubeSats for education and research; and military/defense satellites.

Loading next visibility...
Identifier
43441, 2018-040C
Orbit
SSO
Last TLE update
4 hours ago
Origin
Manufacturer
Harbin
Mission
Operational Commercial Imaging
Bus & Motor
OHS-1, Unknown motor
Mass
~69 kg wet, ~69 kg dry
Launch date (UTC)
2018-04-26 (7 years ago)
Launch vehicle
CHANG ZHENG 11
Launch site
Jiuquan Satellite Launch Center, China (JSC)
Object type
Payload
Rocket body
Debris
Shape & HBR
Box, 1 m
Radar Cross Section
0.280 m², Medium (>0.1 m² and < 1m²)

Expand to show TLE details & history

TLE from 4 hours ago
0 ZHUHAI-1 OHS-02
1 43441U 18040C   25190.50047450  .00006493  00000-0  24727-3 0  9998
2 43441  97.0767 228.5337 0013199  29.2653 330.9324 15.26968755400635
Epoch: 2025-07-09T12:00Z
TLE epoch observation values (Epoch: 2025-07-09T12:00:40.996Z)
Latitude
Longitude
120.68267°
Altitude
480.073 km
Speed
7.63 km/s
True Right ascension
15h 14m 08s
True Declination
0° 00' 00"
Sunlit
Object was in full shadow at epoch
Visualization orbit readout
Latitude
-13.23038°
Longitude
-60.82307°
Altitude
499.359 km
Speed
7.609 km/s
Apparent Right ascension
00h 52m 57s
Apparent Declination
-67° 05' 02"
Sunlit
Object is in daylight
Visualization observer readout
Local Sidereal Time
04:10:52
Azimuth
198.815° SSW
Elevation
-23.39°
Doppler factor
1
Orbital elements
Apogee altitude
490.877 km
Perigee altitude
472.768 km
Semi-major axis
6,859.96 km
Eccentricity
0.00132
Inclination
97.0767°
RAAN
228.5337°
Arg. of periapsis
29.2653°
True anomaly
Unknown
Mean anomaly
330.9324°
Eccentric anomaly
Unknown
Mean motion
3.81998 °/min
Orbital period
94.24 mins
BSTAR
0.00024727
Loading maneuver chart data...
Loading SW <> Apogee altitude chart data...
Loading historical data...
Loading historical data...
Loading historical data...
Loading historical data...
Loading historical data...
Loading historical data...
Loading historical data...

ZHUHAI-1 OHS-02 Visibility forecast

Observer location: undefined°, undefined°

Span
Click to sort rows by Start time (UTC) header in descending order
Start Az.
Max El. time (UTC)
Max El. Az.
Max El.
End time (UTC)
End Az.
6 mins2025-07-10 02:17:58.593Z145.595° SSE2025-07-10 02:20:58.593Z58.398° ENE35.503°2025-07-10 02:23:58.593Z1.192° NNE
6 mins2025-07-10 15:18:58.593Z17.363° NNE2025-07-10 15:21:58.593Z159.953° S41.295°2025-07-10 15:24:58.593Z186.835° SSW
|